,,PA_Meas_PMT16A,,PR_Meas_QMR101_102,,RH_Meas_QMH101,,SR_Meas_QMS101,,TA_Meas_QMH101,,GenWind,,GenWind,
time,status,PA,status,PR,status,RH,status,SR,status,TA,status,DirAvg,status,SpdAvg,
2016-09-20, 15:25:04,VALID,919.426,VALID,0,INVALID,114.877,VALID,98.7384,VALID,19.1388,VALID,256,VALID,0.349219,
2016-09-20, 15:30:04,INVALID - VALUE NOT AVAILABLE,0,INVALID - VALUE NOT AVAILABLE,0,INVALID - VALUE NOT AVAILABLE,0,INVALID - VALUE NOT AVAILABLE,0,INVALID - VALUE NOT AVAILABLE,0,INVALID,360,INVALID,0,
2016-09-20, 15:32:04,VALID,919.504,VALID,0,INVALID,114.885,VALID,111.094,VALID,19.3338,VALID,43,VALID,1.18594,
2016-09-20, 15:33:04,VALID,919.503,VALID,0.2,INVALID,114.893,VALID,111.202,VALID,19.3728,VALID,32,VALID,0,
2016-09-20, 15:34:04,VALID,919.517,VALID,0,INVALID,114.877,VALID,106.474,VALID,19.4313,VALID,32,VALID,0,
2016-09-20, 15:57:04,VALID,919.827,VALID,0,INVALID,115.472,VALID,139.136,VALID,19.7238,VALID,35,VALID,0.176172,
2016-09-20, 15:58:04,VALID,919.808,VALID,0,INVALID,115.563,VALID,145.153,VALID,19.7238,VALID,22,VALID,0.753125,
2016-09-20, 15:59:04,VALID,919.792,VALID,0,INVALID,115.754,VALID,139.136,VALID,19.6653,VALID,331,VALID,0.508594,
2016-09-20, 16:00:04,VALID,919.79,VALID,0,INVALID,116.021,VALID,130.648,VALID,19.5873,VALID,356,VALID,1.73086,
2016-09-20, 16:01:04,VALID,919.815,VALID,0,INVALID,116.021,VALID,127.103,VALID,19.6068,VALID,31,VALID,0.758984,
2016-09-20, 16:02:04,VALID,919.828,VALID,0,INVALID,115.967,VALID,117.541,VALID,19.6458,VALID,31,VALID,0.0335938,
2016-09-20, 16:03:04,VALID,919.841,VALID,0,INVALID,115.96,VALID,115.714,VALID,19.6653,VALID,31,VALID,0.240234,
2016-09-20, 16:04:04,VALID,919.837,VALID,0,INVALID,115.891,VALID,120.012,VALID,19.7433,VALID,36,VALID,0.365234,
2016-09-20, 16:05:04,VALID,919.826,VALID,0,INVALID,115.99,VALID,146.12,VALID,19.7643,VALID,140,VALID,0.632422,
2016-09-20, 16:06:04,VALID,919.849,VALID,0,INVALID,116.074,VALID,187.7,VALID,19.7238,VALID,182,VALID,0.445703,
2016-09-20, 16:07:04,VALID,919.803,VALID,0,INVALID,116.356,VALID,197.477,VALID,19.6263,VALID,321,VALID,0.724609,
2016-09-20, 16:08:04,VALID,919.842,VALID,0,INVALID,116.204,VALID,209.94,VALID,19.7238,VALID,327,VALID,0,
2016-09-20, 16:09:04,VALID,919.836,VALID,0,INVALID,116.188,VALID,226.593,VALID,19.7823,VALID,322,VALID,0,
2016-09-20, 16:10:04,VALID,919.828,VALID,0.2,INVALID,116.257,VALID,240.776,VALID,19.8213,VALID,1,VALID,0.625,
2016-09-20, 16:11:04,VALID,919.793,VALID,0,INVALID,116.425,VALID,227.99,VALID,19.8213,VALID,13,VALID,2.29453,
2016-09-20, 16:12:04,VALID,919.822,VALID,0,INVALID,116.455,VALID,216.279,VALID,19.8798,VALID,267,VALID,0.728516,
2016-09-20, 16:13:04,VALID,919.833,VALID,0,INVALID,116.539,VALID,223.155,VALID,19.8978,VALID,310,VALID,0,
2016-09-20, 16:14:04,VALID,919.848,VALID,0,INVALID,116.684,VALID,224.552,VALID,19.9173,VALID,18,VALID,1.29844,
2016-09-20, 16:15:04,VALID,919.822,VALID,0,INVALID,116.852,VALID,220.039,VALID,19.9188,VALID,286,VALID,0.49375,
2016-09-20, 16:16:04,VALID,919.84,VALID,0,INVALID,116.989,VALID,207.899,VALID,19.9368,VALID,12,VALID,0.332031,
2016-09-20, 16:17:04,VALID,919.861,VALID,0,INVALID,116.897,VALID,192.642,VALID,20.0343,VALID,9,VALID,0.219922,
2016-09-20, 16:18:04,VALID,919.885,VALID,0,INVALID,116.981,VALID,174.055,VALID,20.1318,VALID,13,VALID,0.475,
2016-09-20, 16:19:04,VALID,919.897,VALID,0,INVALID,117.187,VALID,174.699,VALID,20.1108,VALID,322,VALID,0.754687,
2016-09-20, 16:20:04,VALID,919.897,VALID,0,INVALID,117.454,VALID,184.047,VALID,20.0538,VALID,319,VALID,0.441406,
2016-09-20, 16:21:04,VALID,919.851,VALID,0,INVALID,117.904,VALID,189.311,VALID,19.9353,VALID,262,VALID,0,
2016-09-20, 16:22:04,VALID,919.838,VALID,0,INVALID,117.965,VALID,202.097,VALID,19.9548,VALID,262,VALID,0,
2016-09-20, 16:23:04,VALID,919.854,VALID,0,INVALID,118.163,VALID,201.452,VALID,19.9563,VALID,328,VALID,0.601563,
2016-09-20, 16:24:04,VALID,919.863,VALID,0,INVALID,118.415,VALID,203.386,VALID,19.9173,VALID,270,VALID,0.575391,
2016-09-20, 16:25:04,VALID,919.866,VALID,0,INVALID,118.605,VALID,226.271,VALID,19.9158,VALID,326,VALID,0.749609,
2016-09-20, 16:26:04,VALID,919.882,VALID,0,INVALID,118.758,VALID,257.214,VALID,19.9353,VALID,325,VALID,1.02969,
2016-09-20, 16:27:04,VALID,919.856,VALID,0,INVALID,118.849,VALID,276.876,VALID,19.9578,VALID,315,VALID,0,
2016-09-20, 16:28:04,VALID,919.842,VALID,0,INVALID,118.849,VALID,270.752,VALID,20.0148,VALID,354,VALID,0,
2016-09-20, 16:29:04,VALID,919.847,VALID,0,INVALID,119.002,VALID,239.486,VALID,19.9953,VALID,282,VALID,0,
2016-09-20, 16:30:04,VALID,919.842,VALID,0,INVALID,119.085,VALID,232.825,VALID,19.9953,VALID,334,VALID,0,
2016-09-20, 16:31:04,VALID,919.869,VALID,0,INVALID,119.184,VALID,233.255,VALID,20.0148,VALID,28,VALID,0,
2016-09-20, 16:32:04,VALID,919.863,VALID,0,INVALID,118.971,VALID,240.561,VALID,20.1708,VALID,23,VALID,0,
2016-09-20, 16:33:04,VALID,919.865,VALID,0,INVALID,119.245,VALID,238.197,VALID,20.0733,VALID,281,VALID,0,
2016-09-20, 16:34:04,VALID,919.848,VALID,0,INVALID,119.291,VALID,247.115,VALID,20.0733,VALID,251,VALID,0,
2016-09-20, 16:35:04,VALID,919.82,VALID,0,INVALID,119.192,VALID,261.297,VALID,20.1498,VALID,234,VALID,0,
2016-09-20, 16:36:04,VALID,919.815,VALID,0,INVALID,119.306,VALID,271.289,VALID,20.1903,VALID,244,VALID,0,
2016-09-20, 16:37:04,VALID,919.857,VALID,0,INVALID,119.383,VALID,270.429,VALID,20.1708,VALID,283,VALID,0,
2016-09-20, 16:38:04,VALID,919.815,VALID,0,INVALID,119.413,VALID,280.529,VALID,20.1903,VALID,330,VALID,0,
2016-09-20, 16:39:04,VALID,919.76,VALID,0,INVALID,119.367,VALID,285.364,VALID,20.1693,VALID,264,VALID,2.1,
2016-09-20, 16:40:04,VALID,919.796,VALID,0,INVALID,119.245,VALID,282.893,VALID,20.1513,VALID,258,VALID,0.686328,
2016-09-20, 16:41:04,VALID,919.784,VALID,0,INVALID,119.078,VALID,282.14,VALID,20.0928,VALID,299,VALID,1.49102,
2016-09-20, 16:42:04,VALID,919.763,VALID,0,INVALID,119.04,VALID,304.703,VALID,20.0913,VALID,9,VALID,1.09414,
2016-09-20, 16:43:04,VALID,919.774,VALID,0,INVALID,119.04,VALID,321.571,VALID,20.1108,VALID,19,VALID,0,
2016-09-20, 16:44:04,VALID,919.756,VALID,0,INVALID,119.146,VALID,332.638,VALID,20.2098,VALID,314,VALID,0,
2016-09-20, 16:45:04,VALID,919.737,VALID,0,INVALID,119.215,VALID,334.787,VALID,20.3448,VALID,341,VALID,0.689062,
2016-09-20, 16:46:04,VALID,919.71,VALID,0,INVALID,119.245,VALID,335.431,VALID,20.3838,VALID,352,VALID,0.969922,
2016-09-20, 16:47:04,VALID,919.672,VALID,0,INVALID,119.291,VALID,328.77,VALID,20.4813,VALID,308,VALID,0,
2016-09-20, 16:48:04,VALID,919.699,VALID,0,INVALID,119.245,VALID,340.803,VALID,20.4813,VALID,328,VALID,0.630859,
2016-09-20, 16:49:04,VALID,919.643,VALID,0,INVALID,119.146,VALID,344.027,VALID,20.5219,VALID,343,VALID,0.924219,
2016-09-20, 16:50:04,VALID,919.609,VALID,0,INVALID,118.956,VALID,345.853,VALID,20.4634,VALID,267,VALID,1.63203,
2016-09-20, 16:51:04,VALID,919.659,VALID,0,INVALID,118.971,VALID,341.663,VALID,20.5609,VALID,51,VALID,0.0886719,
2016-09-20, 16:52:04,VALID,919.612,VALID,0,INVALID,119.123,VALID,349.936,VALID,20.678,VALID,28,VALID,0.836328,
2016-09-20, 16:53:04,VALID,919.618,VALID,0,INVALID,119.215,VALID,351.01,VALID,20.795,VALID,23,VALID,1.5793,
2016-09-20, 16:54:04,VALID,919.53,VALID,0,INVALID,118.941,VALID,342.308,VALID,20.6569,VALID,355,VALID,2.10039,
2016-09-20, 16:55:04,VALID,919.536,VALID,0,INVALID,118.331,VALID,326.729,VALID,20.6179,VALID,346,VALID,1.60469,
2016-09-20, 16:56:04,VALID,919.561,VALID,0,INVALID,118.491,VALID,332.745,VALID,20.6764,VALID,21,VALID,1.15703,
2016-09-20, 16:57:04,VALID,919.551,VALID,0,INVALID,118.719,VALID,353.589,VALID,20.7349,VALID,334,VALID,0.977734,
2016-09-20, 16:58:04,VALID,919.517,VALID,0,INVALID,118.293,VALID,341.233,VALID,20.6764,VALID,8,VALID,1.81172,
2016-09-20, 16:59:04,VALID,919.529,VALID,0,INVALID,118.819,VALID,346.39,VALID,20.8145,VALID,342,VALID,1.02266,
2016-09-20, 17:00:04,VALID,919.481,VALID,0,INVALID,119.009,VALID,350.043,VALID,20.8714,VALID,12,VALID,1.73125,
2016-09-20, 17:01:04,VALID,919.49,VALID,0,INVALID,119.238,VALID,349.506,VALID,21.0275,VALID,20,VALID,1.9125,
2016-09-20, 17:02:04,VALID,919.445,VALID,0,INVALID,119.047,VALID,346.498,VALID,21.0275,VALID,23,VALID,1.71406,
2016-09-20, 17:03:04,VALID,919.466,VALID,0,INVALID,118.727,VALID,343.489,VALID,20.9674,VALID,328,VALID,0.823828,
2016-09-20, 17:04:04,VALID,919.455,VALID,0,INVALID,118.171,VALID,340.159,VALID,20.9885,VALID,12,VALID,1.9625,
2016-09-20, 17:05:04,VALID,919.412,VALID,0,INVALID,116.806,VALID,334.464,VALID,20.9495,VALID,12,VALID,1.81289,
2016-09-20, 17:06:04,VALID,919.419,VALID,0,INVALID,116.547,VALID,340.266,VALID,20.9885,VALID,4,VALID,1.77539,
2016-09-20, 17:07:04,VALID,919.405,VALID,0,INVALID,117.019,VALID,344.886,VALID,21.0665,VALID,23,VALID,0.871875,
2016-09-20, 17:08:04,VALID,919.425,VALID,0,INVALID,116.28,VALID,341.663,VALID,21.0454,VALID,7,VALID,1.12148,
2016-09-20, 17:09:04,VALID,919.388,VALID,0,INVALID,117.919,VALID,351.225,VALID,21.2031,VALID,5,VALID,0.106641,
2016-09-20, 17:10:04,VALID,919.418,VALID,0,INVALID,118.026,VALID,350.795,VALID,21.2405,VALID,359,VALID,1.24258,
2016-09-20, 17:11:04,VALID,919.365,VALID,0,INVALID,114.519,VALID,349.828,VALID,21.086,VALID,14,VALID,3.31367,
2016-09-20, 17:12:04,VALID,919.375,VALID,0,INVALID,110.913,VALID,350.151,VALID,21.0064,VALID,316,VALID,1.02695,
2016-09-20, 17:13:04,VALID,919.347,VALID,0,INVALID,113.947,VALID,346.713,VALID,21.0275,VALID,5,VALID,0.784375,
2016-09-20, 17:14:04,VALID,919.349,VALID,0,INVALID,117.141,VALID,329.737,VALID,21.1234,VALID,344,VALID,0.159375,
2016-09-20, 17:15:04,VALID,919.341,VALID,0,INVALID,117.088,VALID,315.447,VALID,21.1624,VALID,349,VALID,0,
2016-09-20, 17:16:04,VALID,919.316,VALID,0,INVALID,117.225,VALID,333.39,VALID,21.221,VALID,70,VALID,0,
2016-09-20, 17:17:04,VALID,919.315,VALID,0,INVALID,115.098,VALID,335.216,VALID,21.1624,VALID,8,VALID,1.37344,
2016-09-20, 17:18:04,VALID,919.314,VALID,0,INVALID,111.957,VALID,326.943,VALID,21.1429,VALID,9,VALID,2.20859,
2016-09-20, 17:19:04,VALID,919.335,VALID,0,INVALID,115.586,VALID,327.696,VALID,21.1429,VALID,351,VALID,0.186328,
2016-09-20, 17:20:04,VALID,919.315,VALID,0,INVALID,115.48,VALID,340.696,VALID,21.1413,VALID,3,VALID,2.30547,
2016-09-20, 17:21:04,VALID,919.324,VALID,0,INVALID,115.624,VALID,332.638,VALID,21.1608,VALID,17,VALID,1.50156,
2016-09-20, 17:22:04,VALID,919.306,VALID,0,INVALID,116.013,VALID,322.861,VALID,21.221,VALID,48,VALID,0.800781,
2016-09-20, 17:23:04,VALID,919.3,VALID,0,INVALID,116.897,VALID,336.183,VALID,21.299,VALID,357,VALID,0,
2016-09-20, 17:24:04,VALID,919.254,VALID,0,INVALID,116.28,VALID,352.622,VALID,21.3185,VALID,4,VALID,1.75508,
2016-09-20, 17:25:04,VALID,919.249,VALID,0,INVALID,116.455,VALID,358.746,VALID,21.3559,VALID,340,VALID,1.39141,
2016-09-20, 17:26:04,VALID,919.245,VALID,0,INVALID,115.884,VALID,361.969,VALID,21.3559,VALID,3,VALID,2.06875,
2016-09-20, 17:27:04,VALID,919.209,VALID,0,INVALID,117.195,VALID,366.804,VALID,21.4729,VALID,12,VALID,1.46484,
2016-09-20, 17:28:04,VALID,919.192,VALID,0,INVALID,116.768,VALID,370.242,VALID,21.5314,VALID,356,VALID,0.839453,
2016-09-20, 17:29:04,VALID,919.183,VALID,0,INVALID,113.002,VALID,372.069,VALID,21.5509,VALID,14,VALID,1.53398,
2016-09-20, 17:30:04,VALID,919.156,VALID,0,INVALID,114.473,VALID,374.325,VALID,21.6891,VALID,22,VALID,0.830859,
2016-09-20, 17:31:04,VALID,919.167,VALID,0,VALID,93.2344,VALID,376.689,VALID,21.629,VALID,16,VALID,2.50039,
2016-09-20, 17:32:04,VALID,919.132,VALID,0,INVALID,111.904,VALID,377.978,VALID,21.6696,VALID,351,VALID,0.890625,
2016-09-20, 17:33:04,VALID,919.129,VALID,0,INVALID,111.02,VALID,378.837,VALID,21.7087,VALID,8,VALID,0.0632813,
2016-09-20, 17:34:04,VALID,919.133,VALID,0,INVALID,110.654,VALID,379.052,VALID,21.7265,VALID,15,VALID,0.505078,
2016-09-20, 17:35:04,VALID,919.105,VALID,0,VALID,96.1389,VALID,384.747,VALID,21.7655,VALID,310,VALID,1.43984,
2016-09-20, 17:36:04,VALID,919.075,VALID,0,VALID,103.732,VALID,386.251,VALID,21.785,VALID,11,VALID,1.58359,
2016-09-20, 17:37:04,VALID,919.115,VALID,0,INVALID,111.256,VALID,388.83,VALID,21.9021,VALID,323,VALID,0.626953,
2016-09-20, 17:38:04,VALID,919.075,VALID,0,VALID,94.0425,VALID,389.474,VALID,21.9004,VALID,323,VALID,0.883984,
2016-09-20, 17:39:04,VALID,919.048,VALID,0,VALID,104,VALID,390.119,VALID,21.9606,VALID,359,VALID,1.32422,
2016-09-20, 17:40:04,VALID,919,VALID,0,VALID,104,VALID,387.755,VALID,21.9199,VALID,6,VALID,1.72266,
2016-09-20, 17:41:04,VALID,918.994,VALID,0,VALID,102.695,VALID,378.623,VALID,21.9606,VALID,28,VALID,2.75078,
2016-09-20, 17:42:04,VALID,919.021,VALID,0,INVALID,109.709,VALID,387.003,VALID,22.0403,VALID,17,VALID,1.64258,
2016-09-20, 17:43:04,VALID,918.974,VALID,0,INVALID,112.163,VALID,391.408,VALID,22.1362,VALID,9,VALID,0.359375,
2016-09-20, 17:44:04,VALID,918.962,VALID,0,VALID,104,VALID,393.127,VALID,22.255,VALID,27,VALID,1.52773,
2016-09-20, 17:45:04,VALID,918.925,VALID,0,VALID,91.2447,VALID,392.375,VALID,22.2923,VALID,5,VALID,1.1332,
2016-09-20, 17:46:04,VALID,918.917,VALID,0,VALID,93.4326,VALID,390.978,VALID,22.2923,VALID,12,VALID,1.35859,
2016-09-20, 17:47:04,VALID,918.847,VALID,0,VALID,87.5549,VALID,375.077,VALID,22.1947,VALID,10,VALID,3.64102,
2016-09-20, 17:48:04,VALID,918.878,VALID,0,VALID,104,VALID,398.499,VALID,22.0582,VALID,360,VALID,1.20352,
2016-09-20, 17:49:04,VALID,918.82,VALID,0,VALID,96.2837,VALID,399.359,VALID,22.0013,VALID,35,VALID,1.39453,
2016-09-20, 17:50:04,VALID,918.817,VALID,0,VALID,104,VALID,398.499,VALID,21.9801,VALID,6,VALID,1.78437,
2016-09-20, 17:51:04,VALID,918.819,VALID,0,VALID,104,VALID,399.574,VALID,22.0387,VALID,357,VALID,1.61367,
2016-09-20, 17:52:04,VALID,918.796,VALID,0,VALID,91.9003,VALID,401.078,VALID,22.0191,VALID,11,VALID,2.175,
2016-09-20, 17:53:04,VALID,918.808,VALID,0,VALID,90.833,VALID,403.334,VALID,22.0175,VALID,356,VALID,2.1582,
2016-09-20, 17:54:04,VALID,918.823,VALID,0,VALID,103.381,VALID,404.516,VALID,22.0777,VALID,355,VALID,1.24102,
2016-09-20, 17:55:04,VALID,918.797,VALID,0,VALID,104,VALID,403.764,VALID,22.2338,VALID,358,VALID,0.453906,
2016-09-20, 17:56:04,VALID,918.799,VALID,0,VALID,95.5976,VALID,406.128,VALID,22.2728,VALID,2,VALID,1.25898,
2016-09-20, 17:57:04,VALID,918.781,VALID,0,INVALID,110.486,VALID,408.061,VALID,22.3508,VALID,344,VALID,1.07031,
2016-09-20, 17:58:04,VALID,918.778,VALID,0,VALID,104,VALID,407.847,VALID,22.4467,VALID,32,VALID,1.45547,
2016-09-20, 17:59:04,VALID,918.75,VALID,0,VALID,87.8294,VALID,409.243,VALID,22.5069,VALID,21,VALID,2.13164,
2016-09-20, 18:00:04,VALID,918.778,VALID,0,VALID,87.776,VALID,411.5,VALID,22.4874,VALID,347,VALID,2.34219,
2016-09-20, 18:01:04,VALID,918.744,VALID,0,VALID,89.2626,VALID,411.822,VALID,22.4289,VALID,357,VALID,0.729297,
2016-09-20, 18:02:04,VALID,918.745,VALID,0,VALID,95.1555,VALID,418.376,VALID,22.4662,VALID,12,VALID,1.19297,
2016-09-20, 18:03:04,VALID,918.733,VALID,0,VALID,90.5738,VALID,419.558,VALID,22.4484,VALID,360,VALID,1.19492,
2016-09-20, 18:04:04,VALID,918.705,VALID,0,VALID,91.2675,VALID,418.806,VALID,22.4272,VALID,16,VALID,2.46836,
2016-09-20, 18:05:04,VALID,918.718,VALID,0,VALID,104,VALID,419.45,VALID,22.5069,VALID,341,VALID,0.958984,
2016-09-20, 18:06:04,VALID,918.695,VALID,0,VALID,102.771,VALID,422.566,VALID,22.5833,VALID,14,VALID,0.960547,
2016-09-20, 18:07:04,VALID,918.65,VALID,0,VALID,93.8976,VALID,425.252,VALID,22.6808,VALID,32,VALID,1.59844,
2016-09-20, 18:08:04,VALID,918.657,VALID,0,VALID,98.0676,VALID,424.178,VALID,22.8582,VALID,344,VALID,1.21875,
2016-09-20, 18:09:04,VALID,918.605,VALID,0,VALID,86.5868,VALID,392.912,VALID,22.8955,VALID,353,VALID,0,
2016-09-20, 18:10:04,VALID,918.609,VALID,0,VALID,103.084,VALID,432.88,VALID,22.993,VALID,11,VALID,0.455469,
2016-09-20, 18:11:04,VALID,918.584,VALID,0,VALID,93.4783,VALID,442.658,VALID,23.0711,VALID,14,VALID,2.65547,
2016-09-20, 18:12:04,VALID,918.614,VALID,0,VALID,83.484,VALID,447.707,VALID,23.0711,VALID,18,VALID,2.41172,
2016-09-20, 18:13:04,VALID,918.584,VALID,0,VALID,82.5768,VALID,449.426,VALID,22.8955,VALID,312,VALID,1.10469,
2016-09-20, 18:14:04,VALID,918.508,VALID,0,VALID,83.4459,VALID,443.195,VALID,22.8174,VALID,16,VALID,1.46758,
2016-09-20, 18:15:04,VALID,918.532,VALID,0,VALID,81.6087,VALID,427.401,VALID,22.7198,VALID,300,VALID,1.6457,
2016-09-20, 18:16:04,VALID,918.532,VALID,0,VALID,88.8204,VALID,447.6,VALID,22.6808,VALID,28,VALID,1.63281,
2016-09-20, 18:17:04,VALID,918.49,VALID,0,VALID,87.6235,VALID,451.253,VALID,22.6808,VALID,13,VALID,0.771875,
2016-09-20, 18:18:04,VALID,918.474,VALID,0,VALID,101.834,VALID,410.748,VALID,22.7181,VALID,18,VALID,2.39102,
2016-09-20, 18:19:04,VALID,918.531,VALID,0,VALID,87.372,VALID,418.161,VALID,22.7784,VALID,274,VALID,0.280859,
2016-09-20, 18:20:04,VALID,918.497,VALID,0,VALID,90.2384,VALID,500.353,VALID,22.8955,VALID,18,VALID,1.49219,
2016-09-20, 18:21:04,VALID,918.431,VALID,0,VALID,90.5662,VALID,510.99,VALID,22.9735,VALID,20,VALID,0.157422,
2016-09-20, 18:22:04,VALID,918.409,VALID,0,VALID,90.5891,VALID,519.371,VALID,23.1101,VALID,12,VALID,0.787109,
2016-09-20, 18:23:04,VALID,918.368,VALID,0,VALID,84.5894,VALID,518.726,VALID,23.2077,VALID,11,VALID,1.96172,
2016-09-20, 18:24:04,VALID,918.397,VALID,0,VALID,80.2441,VALID,526.354,VALID,23.1864,VALID,256,VALID,1.32266,
2016-09-20, 18:25:04,VALID,918.385,VALID,0,VALID,80.1145,VALID,536.346,VALID,23.0498,VALID,309,VALID,0.882031,
2016-09-20, 18:26:04,VALID,918.33,VALID,0,VALID,82.1728,VALID,533.445,VALID,23.0906,VALID,308,VALID,0.662109,
2016-09-20, 18:27:04,VALID,918.345,VALID,0,VALID,82.4472,VALID,541.611,VALID,23.2662,VALID,351,VALID,1.24883,
2016-09-20, 18:28:04,VALID,918.297,VALID,0,VALID,81.8526,VALID,539.569,VALID,23.4028,VALID,42,VALID,1.55195,
2016-09-20, 18:29:04,VALID,918.282,VALID,0,VALID,81.2275,VALID,532.478,VALID,23.4809,VALID,339,VALID,1.54609,
2016-09-20, 18:30:04,VALID,918.316,VALID,0,VALID,83.5145,VALID,547.413,VALID,23.5395,VALID,326,VALID,0.642578,
2016-09-20, 18:31:04,VALID,918.235,VALID,0,VALID,80.1755,VALID,552.14,VALID,23.4809,VALID,194,VALID,0.0632813,
2016-09-20, 18:32:04,VALID,918.204,VALID,0,VALID,81.0903,VALID,503.899,VALID,23.598,VALID,35,VALID,0.000390625,
2016-09-20, 18:33:04,VALID,918.234,VALID,0,VALID,81.0522,VALID,570.298,VALID,23.8127,VALID,33,VALID,0.766406,
2016-09-20, 18:34:04,VALID,918.209,VALID,0,VALID,78.7346,VALID,566.537,VALID,23.7542,VALID,325,VALID,1.45742,
2016-09-20, 18:35:04,VALID,918.16,VALID,0,VALID,80.9226,VALID,488.75,VALID,23.7346,VALID,350,VALID,0.0417969,
2016-09-20, 18:36:04,VALID,918.144,VALID,0,VALID,80.0992,VALID,607.687,VALID,23.7151,VALID,269,VALID,0.0195313,
2016-09-20, 18:37:04,VALID,918.113,VALID,0,VALID,80.8082,VALID,616.175,VALID,23.7932,VALID,245,VALID,0.155078,
2016-09-20, 18:38:04,VALID,918.113,VALID,0,VALID,81.5629,VALID,628.746,VALID,23.9884,VALID,264,VALID,0.720312,
2016-09-20, 18:39:04,VALID,918.082,VALID,0,VALID,82.5159,VALID,637.771,VALID,23.9866,VALID,11,VALID,0.0800781,
2016-09-20, 18:40:04,VALID,917.986,VALID,0,VALID,79.314,VALID,641.853,VALID,23.928,VALID,10,VALID,1.83633,
2016-09-20, 18:41:04,VALID,918.032,VALID,0,VALID,80.732,VALID,651.845,VALID,23.7914,VALID,29,VALID,1.86641,
2016-09-20, 18:42:04,VALID,918.006,VALID,0,VALID,82.7064,VALID,651.523,VALID,23.9085,VALID,30,VALID,0.00351562,
2016-09-20, 18:43:04,VALID,917.965,VALID,0,VALID,81.0826,VALID,634.118,VALID,23.967,VALID,8,VALID,1.15547,
2016-09-20, 18:44:04,VALID,917.915,VALID,0,VALID,81.7001,VALID,627.456,VALID,23.8304,VALID,23,VALID,2.15898,
2016-09-20, 18:45:04,VALID,917.931,VALID,0,VALID,81.8145,VALID,639.167,VALID,23.7328,VALID,355,VALID,0.787891,
2016-09-20, 18:46:04,VALID,917.901,VALID,0,VALID,81.2046,VALID,489.932,VALID,23.7523,VALID,19,VALID,1.23555,
2016-09-20, 18:47:04,VALID,917.891,VALID,0,VALID,82.3558,VALID,615.53,VALID,23.8304,VALID,352,VALID,1.93164,
2016-09-20, 18:48:04,VALID,917.849,VALID,0,VALID,80.4575,VALID,582.761,VALID,23.8109,VALID,20,VALID,1.45469,
2016-09-20, 18:49:04,VALID,917.8,VALID,0,VALID,79.7867,VALID,591.571,VALID,23.9085,VALID,19,VALID,2.46953,
2016-09-20, 18:50:04,VALID,917.861,VALID,0,VALID,81.6773,VALID,578.141,VALID,24.0256,VALID,12,VALID,1.01914,
2016-09-20, 18:51:04,VALID,917.751,VALID,0,VALID,79.7562,VALID,566,VALID,24.2208,VALID,14,VALID,0,
2016-09-20, 18:52:04,VALID,917.744,VALID,0,VALID,78.0943,VALID,564.926,VALID,24.297,VALID,20,VALID,1.57813,
2016-09-20, 18:53:04,VALID,917.744,VALID,0,VALID,79.84,VALID,575.562,VALID,24.2775,VALID,351,VALID,0.838672,
2016-09-20, 18:54:04,VALID,917.706,VALID,0,VALID,78.5517,VALID,563.207,VALID,24.2403,VALID,331,VALID,0.199219,
2016-09-20, 18:55:04,VALID,917.667,VALID,0,VALID,77.1109,VALID,580.934,VALID,24.1214,VALID,12,VALID,0.748438,
2016-09-20, 18:56:04,VALID,917.639,VALID,0,VALID,79.5427,VALID,585.339,VALID,24.0451,VALID,44,VALID,2.22969,
2016-09-20, 18:57:04,VALID,917.706,VALID,0,VALID,74.153,VALID,580.934,VALID,23.8908,VALID,267,VALID,2.98086,
2016-09-20, 18:58:04,VALID,917.697,VALID,0,VALID,76.5848,VALID,588.563,VALID,23.5377,VALID,229,VALID,0.496094,
2016-09-20, 18:59:04,VALID,917.675,VALID,0,VALID,80.9378,VALID,584.158,VALID,23.5962,VALID,16,VALID,1.41328,
2016-09-20, 19:00:04,VALID,917.578,VALID,0,VALID,80.3813,VALID,604.464,VALID,23.7151,VALID,21,VALID,2.35625,
2016-09-20, 19:01:04,VALID,917.697,VALID,0,VALID,78.018,VALID,573.951,VALID,23.6938,VALID,350,VALID,1.92813,
2016-09-20, 19:02:04,VALID,917.667,VALID,0,VALID,79.9391,VALID,579.215,VALID,23.7133,VALID,41,VALID,1.85703,
2016-09-20, 19:03:04,VALID,917.619,VALID,0,VALID,80.1221,VALID,525.065,VALID,23.8499,VALID,28,VALID,0,
2016-09-20, 19:04:04,VALID,917.699,VALID,0,VALID,76.9279,VALID,636.266,VALID,23.9866,VALID,294,VALID,0.00195313,
2016-09-20, 19:05:04,VALID,917.62,VALID,0,VALID,78.1248,VALID,639.812,VALID,23.928,VALID,20,VALID,1.67852,
2016-09-20, 19:06:04,VALID,917.562,VALID,0,VALID,78.2162,VALID,644.432,VALID,23.8517,VALID,341,VALID,0.752734,
2016-09-20, 19:07:04,VALID,917.566,VALID,0,VALID,82.9656,VALID,648.622,VALID,23.967,VALID,13,VALID,0.916797,
2016-09-20, 19:08:04,VALID,917.561,VALID,0,VALID,78.0257,VALID,643.68,VALID,23.9475,VALID,32,VALID,0,
2016-09-20, 19:09:04,VALID,917.591,VALID,0,VALID,79.5885,VALID,637.233,VALID,24.0451,VALID,150,VALID,0,
2016-09-20, 19:10:04,VALID,917.558,VALID,0,VALID,78.14,VALID,629.605,VALID,24.2013,VALID,62,VALID,0.0195313,
2016-09-20, 19:11:04,VALID,917.553,VALID,0,VALID,78.5974,VALID,626.382,VALID,24.3965,VALID,360,VALID,0.900391,
2016-09-20, 19:12:04,VALID,917.514,VALID,0,VALID,77.6674,VALID,613.059,VALID,24.5136,VALID,37,VALID,0.0363281,
2016-09-20, 19:13:04,VALID,917.463,VALID,0,VALID,72.3996,VALID,608.762,VALID,24.4941,VALID,268,VALID,0.944141,
2016-09-20, 19:14:04,VALID,917.473,VALID,0,VALID,75.1364,VALID,609.621,VALID,24.455,VALID,238,VALID,0.00585938,
2016-09-20, 19:15:04,VALID,917.448,VALID,0,VALID,74.6866,VALID,595.009,VALID,24.5526,VALID,161,VALID,0,
2016-09-20, 19:16:04,VALID,917.427,VALID,0,VALID,73.8175,VALID,574.488,VALID,24.6893,VALID,160,VALID,0,
2016-09-20, 19:17:04,VALID,917.433,VALID,0,VALID,70.57,VALID,561.595,VALID,24.7655,VALID,299,VALID,0.278906,
2016-09-20, 19:18:04,VALID,917.41,VALID,0,VALID,72.2395,VALID,557.19,VALID,24.6288,VALID,326,VALID,0.501172,
2016-09-20, 19:19:04,VALID,917.379,VALID,0,VALID,75.0068,VALID,561.595,VALID,24.5526,VALID,74,VALID,0.178125,
2016-09-20, 19:20:04,VALID,917.455,VALID,0,VALID,76.5162,VALID,588.563,VALID,24.6093,VALID,22,VALID,0,
2016-09-20, 19:21:04,VALID,917.427,VALID,0,VALID,73.2839,VALID,536.131,VALID,24.5722,VALID,58,VALID,0.385938,
2016-09-20, 19:22:04,VALID,917.335,VALID,0,VALID,73.3144,VALID,624.448,VALID,24.4727,VALID,9,VALID,1.64531,
2016-09-20, 19:23:04,VALID,917.384,VALID,0,VALID,73.2229,VALID,660.011,VALID,24.3184,VALID,266,VALID,2.35391,
2016-09-20, 19:24:04,VALID,917.364,VALID,0,VALID,75.7386,VALID,679.458,VALID,24.0628,VALID,285,VALID,1.63164,
2016-09-20, 19:25:04,VALID,917.342,VALID,0,VALID,73.0704,VALID,714.806,VALID,23.9457,VALID,302,VALID,0.507813,
2016-09-20, 19:26:04,VALID,917.306,VALID,0,VALID,76.7144,VALID,732.319,VALID,24.0451,VALID,333,VALID,1.00586,